SCP
0 0 0 0 0 0 0 0 0 0 0 0 0 0 0 0 0 0 0 0 0 0 0 0 0 0 0 0 1 1 0 0 0 1 1 1 1 2
0 0 0 0 0 0 0 0 0 0 0 0 0 0 0 0 0 0 0 0 0 0 0 0 0 0 0 0 0 0 0 0 0 1 1 1 1 1
0 0 0 0 0 0 0 0 0 0 0 0 0 0 0 0 0 0 0 0 0 0 0 0 0 0 0 0 0 0 0 0 0 0 1 1 1 1
0 0 0 0 0 0 0 0 0 0 0 0 0 0 0 0 0 0 0 0 0 0 0 0 0 0 0 0 0 0 0 0 0 0 0 1 1 1
0 0 0 0 0 0 0 0 0 0 0 0 0 0 0 0 0 0 0 0 0 0 0 0 0 0 0 0 0 0 0 0 0 0 0 0 0 0
0 0 0 0 0 0 0 0 0 0 0 0 0 0 0 0 0 0 0 0 0 0 0 0 0 0 0 0 0 0 0 0 0 0 0 0 0 0
0 0 0 0 0 0 0 0 0 0 0 0 0 0 0 0 0 0 0 0 0 0 0 0 0 0 0 0 0 0 0 0 0 0 0 0 0 0
0 0 0 0 0 0 0 0 0 0 0 0 0 0 0 0 0 0 0 0 0 0 0 0 0 0 0 0 0 0 0 0 0 0 0 0 0 0
0 0 0 0 0 0 0 0 0 0 0 0 0 0 0 0 0 0 0 0 0 0 0 0 0 0 0 0 0 0 0 0 0 0 0 0 0 0
0 0 0 0 0 0 0 0 0 0 0 0 0 0 0 0 0 0 0 0 0 0 0 0 0 0 0 0 0 0 0 0 0 0 0 0 0 0
0 0 0 0 0 0 0 -0 0 0 0 0 0 0 0 0 0 0 0 0 0 0 0 0 0 0 0 0 0 0 0 0 0 0 0 0 0 0
0 0 0 0 0 0 0 0 0 0 0 0 0 0 0 0 0 0 0 0 0 0 0 0 0 0 0 0 0 0 0 0 0 0 0 0 0 0
0 0 0 0 0 0 0 0 0 0 0 0 0 0 0 0 0 0 0 0 0 0 0 0 0 0 0 0 0 0 0 0 0 0 0 0 0 0
0 0 0 0 0 0 0 0 0 0 0 0 0 0 0 0 0 0 0 0 0 0 0 0 0 0 0 0 0 0 0 0 0 0 0 0 0 0
0 0 0 0 0 0 0 0 0 0 0 0 0 0 0 0 0 0 0 0 0 0 0 0 0 0 0 0 0 0 0 0 0 0 0 0 0 0
0 0 0 0 0 0 0 0 0 0 0 0 0 0 0 0 0 0 0 0 0 0 0 0 0 0 0 0 0 0 0 0 0 0 0 0 0 0
0 0 0 0 0 0 0 0 0 0 0 0 0 0 0 0 0 0 0 0 0 0 0 0 0 0 0 0 0 0 0 0 0 0 0 0 0 0
0 0 0 0 0 0 0 0 0 0 0 0 0 0 0 0 0 0 0 0 0 0 0 0 0 0 0 0 0 0 0 0 0 0 0 0 0 0
0 0 0 0 0 0 0 0 0 0 0 0 0 0 0 0 0 0 0 0 0 0 0 0 0 0 0 0 0 0 0 0 0 0 0 0 0 0
0 0 0 0 0 0 0 0 0 0 0 0 0 0 0 0 0 0 0 0 0 0 0 0 0 0 0 0 0 0 0 0 0 0 0 0 0 0
0 0 0 0 0 0 0 0 0 0 0 0 0 0 0 0 0 0 0 0 0 0 0 0 0 0 0 0 0 0 0 0 0 0 0 0 0 0
0 0 0 0 0 0 0 0 0 0 0 0 0 0 0 0 0 0 0 0 0 0 0 0 0 0 0 0 0 0 0 0 0 0 0 0 0 0
0 0 0 0 0 0 0 0 0 0 0 0 0 0 0 0 0 0 0 0 0 0 0 0 0 0 0 0 0 0 0 0 0 0 0 0 0 0
Wind_Speed
9 9 8 7 7 7 7 8 8 9 8 6 4 7 8 8 12 9 8 14 16 14 12 10 7 6 10 13 17 21 23 22 20 20 21 22 21 20
8 8 8 7 7 7 7 7 7 8 8 6 7 9 10 10 14 9 9 16 14 13 12 10 7 6 8 11 14 18 21 22 22 22 23 22 20 19
9 8 9 9 7 6 6 6 6 7 9 8 7 8 10 10 9 8 7 7 7 12 11 10 7 5 7 10 12 16 19 22 23 24 23 23 21 20
9 8 9 7 8 7 6 7 6 7 7 10 9 8 9 9 9 8 7 6 5 10 10 9 7 4 5 8 11 14 17 21 22 22 23 22 21 19
8 8 8 7 8 6 6 6 6 6 6 7 8 7 6 7 8 7 6 4 6 6 7 7 5 4 4 6 9 12 15 18 21 21 21 21 20 19
7 7 7 6 6 7 6 5 6 6 6 6 6 6 6 6 5 5 4 4 4 4 4 4 4 3 2 5 8 10 12 15 17 19 19 19 20 19
8 8 7 9 11 9 7 5 6 5 5 5 6 6 5 5 5 5 5 5 4 2 2 2 2 1 0 3 5 8 10 12 14 16 17 18 19 20
11 10 9 10 14 18 19 17 14 9 7 5 5 6 6 6 6 6 6 4 3 3 2 2 0 0 0 1 3 7 9 10 11 13 15 17 18 19
12 11 10 12 12 8 13 16 14 17 15 7 6 7 7 7 8 7 6 5 4 4 4 2 1 0 1 1 3 6 8 9 11 12 13 15 17 17
11 11 10 11 12 11 9 9 7 9 12 7 6 6 8 7 6 6 7 7 6 4 2 2 0 1 1 2 1 4 7 9 10 11 12 13 14 15
11 12 12 9 20 20 11 10 8 8 13 16 15 13 15 15 11 5 5 4 3 2 0 1 0 1 2 2 3 1 6 9 10 11 12 13 14 13
8 11 17 18 21 21 10 9 10 8 10 11 11 12 9 10 13 6 5 4 3 2 2 1 0 1 2 2 3 3 2 6 9 10 12 15 16 10
8 8 10 22 22 22 17 10 14 12 8 8 7 7 7 6 6 5 4 3 3 3 3 3 1 1 2 2 3 4 4 4 5 6 11 15 16 14
7 7 10 21 21 21 16 18 20 15 8 8 8 8 8 8 8 7 6 5 5 6 7 5 1 0 2 3 2 3 5 6 7 8 8 14 16 19
5 14 17 19 17 13 19 22 16 10 8 9 9 9 8 8 8 7 6 5 4 3 4 4 3 2 1 3 4 3 5 6 7 9 9 9 9 10
5 10 15 16 13 14 14 12 9 10 9 8 9 8 8 8 8 8 7 6 4 4 5 4 1 1 1 2 6 6 5 5 6 9 12 11 10 9
3 3 4 5 7 7 7 8 8 9 9 9 9 9 9 9 9 8 6 6 5 5 5 5 5 7 9 6 6 7 8 9 9 10 12 14 11 9
5 3 4 4 5 6 7 7 7 8 8 9 8 9 9 9 9 8 8 7 6 6 5 4 2 4 6 10 13 6 9 9 8 7 10 16 13 9
3 3 3 4 4 4 4 5 5 7 7 7 8 8 9 9 9 9 9 7 7 7 6 5 4 1 6 5 8 12 7 10 11 10 9 12 14 11
3 3 4 3 3 3 3 3 4 5 6 6 7 7 8 8 8 9 9 9 8 7 7 8 7 5 5 6 5 6 11 7 11 13 13 12 12 16
5 4 4 4 3 3 2 2 3 3 4 5 6 7 7 7 7 8 8 13 10 8 8 8 7 8 5 6 9 9 10 14 10 10 14 14 13 9
7 5 4 4 3 3 2 2 2 2 3 4 4 5 6 6 7 8 8 8 7 8 8 7 8 7 7 10 12 13 12 13 17 20 16 9 7 9
8 7 5 4 4 3 3 2 2 1 1 2 3 4 5 5 5 6 7 7 7 8 8 8 8 9 10 10 11 12 15 13 11 12 14 19 24 25
Wind_Direction
281 282 279 280 283 283 286 290 295 305 308 296 309 325 324 314 315 321 322 321 328 326 322 317 307 256 220 206 199 197 195 192 188 187 189 187 186 184
281 280 282 281 282 283 283 282 281 288 291 297 300 300 307 308 310 317 310 316 319 320 320 315 304 266 222 201 192 192 190 186 184 188 190 188 186 182
284 284 285 286 286 285 285 285 284 282 286 293 293 298 299 302 306 304 301 299 302 313 319 317 304 274 223 197 187 186 186 184 184 187 187 189 188 183
290 291 292 296 294 289 285 285 283 278 283 293 297 298 298 303 301 299 299 297 293 308 318 319 304 279 223 191 184 180 180 180 181 183 185 187 187 183
298 297 298 300 303 301 294 294 292 294 290 292 297 299 298 304 309 301 300 295 291 301 318 321 307 282 213 181 176 178 177 177 179 182 182 183 183 182
325 315 308 306 307 308 309 309 307 303 302 299 298 303 304 310 312 321 323 317 304 310 326 327 319 312 203 174 171 171 173 176 179 180 180 181 181 181
348 341 337 350 355 356 354 351 345 340 331 325 320 315 323 335 340 331 321 314 295 312 329 326 347 341 128 152 157 165 168 172 177 179 180 180 178 179
2 1 358 7 16 14 13 15 10 3 359 350 338 333 333 337 332 328 325 323 320 2 339 317 14 163 104 126 163 170 170 170 174 178 180 179 179 180
7 4 3 3 18 18 10 12 6 5 7 1 342 338 329 334 329 325 325 319 307 333 334 316 28 40 47 64 167 180 179 176 174 176 176 177 178 179
3 360 358 354 4 27 8 0 360 357 357 357 347 338 336 336 329 314 304 297 281 265 256 278 114 91 35 33 37 182 184 182 179 177 175 173 174 174
360 359 358 357 5 21 14 357 358 357 357 0 2 0 358 354 358 344 328 313 297 293 220 238 114 84 44 16 3 64 171 176 177 173 167 164 160 157
357 354 357 9 9 15 16 357 1 359 350 348 352 353 351 348 360 355 329 315 310 300 339 324 145 129 107 24 5 16 103 138 153 159 156 150 143 133
358 353 349 8 11 12 15 8 8 9 350 345 344 346 347 345 340 333 316 292 282 287 333 345 350 70 121 103 30 20 50 79 95 112 129 133 132 129
351 344 353 10 13 11 13 13 12 10 357 354 354 354 351 347 338 328 316 294 263 265 292 302 290 198 137 117 104 57 54 60 82 87 89 98 102 108
355 2 7 12 13 7 9 14 11 4 2 360 356 350 342 333 331 331 329 320 297 277 290 277 248 240 223 143 132 120 89 60 70 88 84 81 88 101
2 357 5 7 12 9 9 7 4 3 6 356 349 342 341 345 352 350 347 348 353 347 342 345 326 177 141 137 130 120 104 106 93 93 93 82 72 75
4 354 353 355 0 1 1 2 1 1 2 355 354 351 353 356 356 355 355 1 14 3 356 7 46 72 64 64 116 115 113 109 113 115 105 95 80 81
11 343 339 344 349 352 355 355 357 0 357 354 357 356 356 357 358 359 5 10 15 11 5 354 21 90 78 48 30 110 115 113 112 106 113 111 101 88
358 312 312 319 325 334 340 344 347 348 350 355 358 357 356 358 3 5 8 11 14 13 9 4 3 76 118 96 20 23 107 122 117 106 100 108 112 110
303 287 287 290 295 308 322 332 337 344 352 355 357 357 358 1 6 8 8 14 15 16 22 24 24 33 89 111 102 50 53 101 122 118 112 104 99 105
312 293 277 273 273 278 292 312 326 337 348 350 355 356 357 1 7 7 9 17 24 23 30 27 25 45 71 93 95 84 70 69 86 114 123 119 112 108
317 303 283 266 259 252 259 280 312 331 346 352 351 354 355 1 5 8 12 14 18 23 31 34 36 50 69 95 102 100 95 90 82 78 69 80 124 134
322 314 294 270 253 233 224 234 252 288 321 340 348 352 356 2 1 7 13 19 24 29 37 47 55 63 71 83 94 98 97 95 91 83 75 84 94 103